TimeEDT,TemperatureF,Dew PointF,Humidity,Sea Level PressureIn,VisibilityMPH,Wind Direction,Wind SpeedMPH,Gust SpeedMPH,PrecipitationIn,Events,Conditions,WindDirDegrees,DateUTC
12:53 AM,78.1,73.0,84,30.15,10.0,North,4.6,-,N/A,,Overcast,360,2013-08-26 04:53:00
1:53 AM,78.1,73.0,84,30.14,10.0,NNE,4.6,-,N/A,,Overcast,30,2013-08-26 05:53:00
2:53 AM,77.0,73.0,88,30.12,10.0,NE,4.6,-,N/A,,Overcast,50,2013-08-26 06:53:00
3:53 AM,77.0,73.0,88,30.11,10.0,NE,5.8,-,N/A,,Overcast,40,2013-08-26 07:53:00
4:53 AM,75.9,73.0,91,30.11,10.0,NE,3.5,-,N/A,,Mostly Cloudy,40,2013-08-26 08:53:00
5:53 AM,75.9,73.0,91,30.12,10.0,NE,3.5,-,N/A,,Mostly Cloudy,40,2013-08-26 09:53:00
6:53 AM,75.9,73.0,91,30.12,10.0,NE,3.5,-,N/A,,Scattered Clouds,40,2013-08-26 10:53:00
7:53 AM,77.0,73.0,88,30.12,10.0,Calm,Calm,-,N/A,,Scattered Clouds,0,2013-08-26 11:53:00
8:53 AM,79.0,73.0,82,30.13,10.0,Variable,4.6,-,N/A,,Scattered Clouds,0,2013-08-26 12:53:00
9:53 AM,82.0,73.9,76,30.14,10.0,East,5.8,-,N/A,,Scattered Clouds,80,2013-08-26 13:53:00
10:53 AM,84.0,73.0,69,30.13,10.0,NNE,8.1,-,N/A,,Scattered Clouds,30,2013-08-26 14:53:00
11:53 AM,84.9,70.0,61,30.14,10.0,Variable,6.9,-,N/A,,Scattered Clouds,0,2013-08-26 15:53:00
12:53 PM,88.0,71.1,57,30.12,10.0,Variable,4.6,-,N/A,,Scattered Clouds,0,2013-08-26 16:53:00
1:53 PM,90.0,70.0,52,30.10,10.0,NNE,5.8,-,N/A,,Mostly Cloudy,30,2013-08-26 17:53:00
2:53 PM,87.1,72.0,61,30.07,10.0,West,5.8,-,0.00,Rain,Light Rain,280,2013-08-26 18:53:00
3:53 PM,87.1,73.0,63,30.04,10.0,WNW,5.8,-,0.00,,Mostly Cloudy,290,2013-08-26 19:53:00
4:16 PM,78.8,73.4,83,30.06,8.0,NE,11.5,33.4,0.00,Rain-Thunderstorm,Thunderstorms and Rain,50,2013-08-26 20:16:00
4:53 PM,80.1,73.9,81,30.04,10.0,Variable,3.5,-,0.05,Thunderstorm,Thunderstorm,0,2013-08-26 20:53:00
5:04 PM,80.6,73.4,79,30.03,10.0,East,6.9,-,N/A,,Mostly Cloudy,80,2013-08-26 21:04:00
5:53 PM,82.9,73.9,74,30.02,10.0,NE,5.8,-,N/A,,Mostly Cloudy,50,2013-08-26 21:53:00
6:53 PM,84.9,73.0,67,30.04,10.0,NE,6.9,-,N/A,,Mostly Cloudy,40,2013-08-26 22:53:00
7:53 PM,82.9,73.0,72,30.04,10.0,NE,6.9,-,N/A,,Scattered Clouds,50,2013-08-26 23:53:00
8:53 PM,82.0,73.0,74,30.07,10.0,ENE,4.6,-,N/A,,Mostly Cloudy,70,2013-08-27 00:53:00
9:53 PM,79.0,71.1,77,30.08,10.0,East,5.8,-,N/A,,Mostly Cloudy,100,2013-08-27 01:53:00
10:53 PM,77.0,72.0,84,30.08,10.0,SSE,3.5,-,0.00,,Mostly Cloudy,160,2013-08-27 02:53:00
11:53 PM,77.0,73.0,88,30.07,10.0,NNE,5.8,-,0.00,,Scattered Clouds,30,2013-08-27 03:53:00